MST,Max TemperatureF,Mean TemperatureF,Min TemperatureF,Max Dew PointF,MeanDew PointF,Min DewpointF,Max Humidity, Mean Humidity, Min Humidity, Max Sea Level PressureIn, Mean Sea Level PressureIn, Min Sea Level PressureIn, Max VisibilityMiles, Mean VisibilityMiles, Min VisibilityMiles, Max Wind SpeedMPH, Mean Wind SpeedMPH, Max Gust SpeedMPH,PrecipitationIn, CloudCover, Events, WindDirDegrees
2012-1-1,32,26,20,16,12,9,68,59,49,30.70,30.63,30.44,10,10,10,20,7,23,0.00,0,,214
2012-1-2,51,39,27,20,16,10,50,39,28,30.58,30.29,30.03,10,10,10,31,21,39,0.00,1,,235
2012-1-3,55,46,36,21,18,16,48,35,22,30.25,30.15,30.00,10,10,10,37,17,45,0.00,0,,263
2012-1-4,56,47,37,19,18,16,48,35,22,30.24,30.18,30.01,10,10,10,28,18,33,0.00,2,,240
2012-1-5,64,53,41,24,17,7,42,29,16,30.00,29.91,29.76,10,10,10,43,22,54,0.00,2,,272
2012-1-6,42,35,27,10,9,6,50,37,23,30.20,30.10,29.97,10,10,10,30,9,40,0.00,2,,295
2012-1-7,39,29,19,14,11,9,62,46,30,30.26,30.18,30.00,10,10,10,14,7,18,0.00,1,,253
2012-1-8,38,29,20,16,14,11,68,54,40,30.23,30.19,30.09,10,10,10,23,17,29,0.00,1,,233
2012-1-9,50,41,32,21,18,15,48,39,29,30.25,30.16,30.06,10,10,10,32,19,38,0.00,1,,238
2012-1-10,51,38,24,27,20,11,78,55,32,30.31,29.98,29.78,10,10,10,37,20,45,0.00,6,,288
2012-1-11,28,20,11,7,-1,-9,60,40,19,30.54,30.43,30.30,10,10,10,35,16,43,0.00,3,,306
2012-1-12,43,31,18,7,4,1,49,34,18,30.31,30.21,30.08,10,10,10,28,18,33,0.00,3,,249
2012-1-13,51,39,27,16,8,0,58,36,13,30.15,30.05,29.98,10,10,10,40,16,49,0.00,2,,256
2012-1-14,51,38,25,14,11,9,57,39,21,30.10,29.86,29.62,10,10,10,22,14,29,0.00,2,,235
2012-1-15,42,28,13,22,13,7,92,58,23,30.05,29.85,29.58,10,5,1,21,11,25,0.02,6,Snow,38
2012-1-16,13,5,-3,10,2,-5,92,86,79,30.27,30.07,29.88,10,4,1,18,9,23,0.14,6,Snow,63
2012-1-17,28,15,2,7,3,-2,87,63,38,30.22,30.03,29.73,10,10,10,29,17,39,0.00,2,,231
2012-1-18,29,9,-12,10,-11,-17,83,63,42,30.14,29.92,29.66,10,3,0,29,14,33,0.34,8,Snow,47
2012-1-19,-1,-6,-12,-5,-12,-17,86,79,72,30.14,29.95,29.62,10,9,2,9,4,10,T,7,Fog-Snow,37
2012-1-20,10,4,-2,3,-4,-8,87,78,69,30.17,29.94,29.72,10,6,0,10,4,13,0.11,6,Fog-Snow,68
2012-1-21,44,25,5,32,20,1,83,71,58,29.65,29.40,29.20,10,10,10,32,8,39,T,5,,239
2012-1-22,39,29,19,22,15,10,62,51,40,29.90,29.79,29.49,10,10,10,32,15,41,0.00,2,,270
2012-1-23,40,28,16,24,16,10,74,57,40,30.00,29.87,29.75,10,10,10,20,8,24,0.00,3,,249
2012-1-24,39,31,22,19,13,10,68,51,33,30.22,30.10,29.87,10,10,10,23,10,29,0.00,0,,232
2012-1-25,50,41,32,30,20,14,58,46,34,30.09,29.90,29.74,10,10,10,39,20,51,0.00,2,,276
2012-1-26,44,37,30,26,21,12,69,55,40,30.07,29.90,29.71,10,10,10,35,11,43,T,4,Rain,264
2012-1-27,36,30,24,21,10,0,88,56,23,30.35,30.25,30.04,10,10,10,32,19,44,T,3,,300
2012-1-28,39,33,27,16,8,1,47,39,31,30.30,30.21,30.07,10,10,10,24,12,31,0.00,4,,277
2012-1-29,53,45,36,27,19,14,45,37,29,30.04,29.87,29.73,10,10,10,38,18,51,0.00,2,,245
2012-1-30,54,44,33,25,20,15,56,41,26,29.86,29.70,29.62,10,10,10,37,17,45,0.00,4,,261
2012-1-31,51,42,33,25,19,12,69,45,21,30.08,29.97,29.86,10,10,10,24,13,31,0.00,4,,265